Location: Canet
(43.3261°N, 5.3723°E)
Time: 18:55:29
(UTC+00:00)

Cosmos 2112 Rocket - Pass Details

Date: 24 January 2021
Orbit: 757 x 786 km, 74.1° (Epoch: 07 March)

Event Time Altitude Azimuth Distance (km) Brightness Sun altitude
Rises 18:13:06 0° 339° (NNW) 3,246 7.4 -16.9°
Reaches altitude 10° 18:15:29 10° 340° (NNW) 2,311 6.6 -17.3°
Maximum altitude 18:20:44 89° 256° (WSW) 767 3.9 -18.3°
Drops below altitude 10° 18:25:55 10° 162° (SSE) 2,281 6.3 -19.2°
Sets 18:28:16 0° 162° (SSE) 3,200 7.1 -19.6°
